Location: Newark
(44.6028°N, 124.0883°W)
Time: 04:00:38
(UTC+00:00)

Vanguard 1 Rocket - Pass Details

Date: 26 October 2019
Orbit: 651 x 4225 km, 34.3° (Epoch: 11 November)

Event Time Altitude Azimuth Distance (km) Brightness Sun altitude
Rises 22:24:11 0° 277° (W) 6,484 12.2 24.2°
Reaches altitude 10° 22:28:07 10° 271° (W) 5,869 12.2 23.7°
Maximum altitude 22:46:37 46° 207° (SSW) 4,827 12.4 21.5°
Drops below altitude 10° 23:10:11 10° 145° (SE) 7,242 12.1 18.5°
Sets 23:15:51 0° 139° (SE) 8,031 12.2 17.7°
